User: anonymous   Login
Location: Ravensburg
(47.7866°N, 9.6124°E)
Time: 23:58:15
(UTC+01:00)
Language:

ZACube-1 - Orbit

View from above orbital plane
View from above orbital plane
View from above satellite
View from above satellite

Ground track
Ground track

The orbit is defined by the following mean orbital elements,

1 39417U          26072.46490286 +.00000000 +00000-0 +36825-3 0 00000
2 39417  97.8158  34.3075 0042994 207.4020 152.4936 15.00365828    07
Epoch (UTC): 13 March 2026 11:09:27
Eccentricity: 0.0042994
inclination: 97.8158°
perigee height: 536 km
apogee height: 596 km
right ascension of ascending node: 34.3075°
argument of perigee: 207.4020°
revolutions per day: 15.00365828
mean anomaly at epoch: 152.4936°

The dashed part of the orbit path shows where the satellite is in the earth's shadow,  

DLR